| time (UTC) | temp C | wind direction | speed KPH | gust KPH | rain 1hr cm | rain 24hr cm | rain mn cm | humidity % | barometer mb |
| 20260510140329 | 21 | 341 | 3.2 | 9.7 | 0.00 | 0.00 | 0.00 | 65 | 1014.9 |
| 20260510135319 | 21 | 341 | 3.2 | 8.0 | 0.00 | 0.00 | 0.00 | 67 | 1014.8 |
| 20260510134311 | 20 | 341 | 3.2 | 8.0 | 0.00 | 0.00 | 0.00 | 68 | 1015.0 |
| 20260510133329 | 20 | 341 | 1.6 | 8.0 | 0.00 | 0.00 | 0.00 | 70 | 1014.8 |
| 20260510132319 | 19 | 341 | 1.6 | 3.2 | 0.00 | 0.00 | 0.00 | 72 | 1014.8 |
| 20260510131337 | 18 | 341 | 0.0 | 6.4 | 0.00 | 0.00 | 0.00 | 73 | 1014.7 |
| 20260510130326 | 18 | 341 | 1.6 | 4.8 | 0.00 | 0.00 | 0.00 | 76 | 1014.8 |
| 20260510125315 | 18 | 341 | 1.6 | 6.4 | 0.00 | 0.00 | 0.00 | 77 | 1014.7 |
| 20260510124331 | 17 | 341 | 1.6 | 3.2 | 0.00 | 0.00 | 0.00 | 79 | 1014.5 |
| 20260510123322 | 17 | 341 | 1.6 | 3.2 | 0.00 | 0.00 | 0.00 | 80 | 1014.4 |
| 20260510122316 | 16 | 341 | 1.6 | 3.2 | 0.00 | 0.00 | 0.00 | 81 | 1014.4 |
| 20260510121335 | 16 | 341 | 1.6 | 3.2 | 0.00 | 0.00 | 0.00 | 81 | 1014.3 |
| 20260510120323 | 16 | 341 | 0.0 | 4.8 | 0.00 | 0.00 | 0.00 | 82 | 1013.9 |
| 20260510115319 | 15 | 341 | 0.0 | 3.2 | 0.00 | 0.00 | 0.00 | 83 | 1013.9 |
| 20260510114338 | 15 | 341 | 0.0 | 1.6 | 0.00 | 0.00 | 0.00 | 83 | 1013.7 |
| 20260510113328 | 15 | 341 | 0.0 | 1.6 | 0.00 | 0.00 | 0.00 | 83 | 1013.5 |
| 20260510112318 | 15 | 341 | 0.0 | 1.6 | 0.00 | 0.00 | 0.00 | 83 | 1013.5 |
| 20260510111355 | 15 | 341 | 0.0 | 4.8 | 0.00 | 0.00 | 0.00 | 83 | 1013.2 |
| 20260510110322 | 14 | 341 | 0.0 | 1.6 | 0.00 | 0.00 | 0.00 | 84 | 1012.8 |
| 20260510105329 | 14 | 341 | 0.0 | 1.6 | 0.00 | 0.00 | 0.00 | 84 | 1012.9 |
| 20260510104347 | 15 | 341 | 0.0 | 1.6 | 0.00 | 0.00 | 0.00 | 84 | 1012.8 |
| 20260510103317 | 15 | 341 | 0.0 | 3.2 | 0.00 | 0.00 | 0.00 | 82 | 1012.6 |
| 20260510102313 | 15 | 341 | 0.0 | 1.6 | 0.00 | 0.00 | 0.00 | 83 | 1012.5 |
| 20260510101331 | 15 | 341 | 0.0 | 3.2 | 0.00 | 0.00 | 0.00 | 84 | 1012.5 |
| 20260510100322 | 15 | 341 | 0.0 | 4.8 | 0.00 | 0.00 | 0.00 | 85 | 1012.4 |
| 20260510095311 | 15 | 341 | 0.0 | 3.2 | 0.00 | 0.00 | 0.00 | 86 | 1012.2 |
| 20260510094328 | 15 | 341 | 0.0 | 1.6 | 0.00 | 0.00 | 0.00 | 88 | 1012.1 |
| 20260510093319 | 15 | 341 | 0.0 | 1.6 | 0.00 | 0.00 | 0.00 | 88 | 1011.8 |
| 20260510092355 | 15 | 341 | 0.0 | 1.6 | 0.00 | 0.00 | 0.00 | 87 | 1011.7 |
| 20260510091326 | 15 | 341 | 0.0 | 1.6 | 0.00 | 0.00 | 0.00 | 88 | 1011.6 |
| 20260510090344 | 15 | 341 | 0.0 | 4.8 | 0.00 | 0.00 | 0.00 | 87 | 1011.5 |
| 20260510085312 | 15 | 341 | 0.0 | 3.2 | 0.00 | 0.00 | 0.00 | 90 | 1011.5 |
| 20260510084347 | 15 | 341 | 0.0 | 3.2 | 0.00 | 0.00 | 0.00 | 91 | 1011.5 |
| 20260510083318 | 15 | 341 | 0.0 | 3.2 | 0.00 | 0.00 | 0.00 | 91 | 1011.6 |
| 20260510082335 | 15 | 341 | 0.0 | 3.2 | 0.00 | 0.00 | 0.00 | 91 | 1011.3 |
| 20260510081326 | 16 | 341 | 1.6 | 6.4 | 0.00 | 0.00 | 0.00 | 91 | 1011.3 |
| 20260510080316 | 16 | 341 | 0.0 | 3.2 | 0.00 | 0.00 | 0.00 | 91 | 1011.3 |
| 20260510075332 | 16 | 341 | 0.0 | 3.2 | 0.00 | 0.00 | 0.00 | 91 | 1011.2 |
| 20260510074331 | 16 | 341 | 0.0 | 3.2 | 0.00 | 0.00 | 0.00 | 91 | 1011.2 |
| 20260510073321 | 16 | 341 | 0.0 | 1.6 | 0.00 | 0.00 | 0.00 | 91 | 1011.2 |
| 20260510072338 | 16 | 341 | 0.0 | 3.2 | 0.00 | 0.00 | 0.00 | 90 | 1011.1 |
| 20260510071328 | 16 | 341 | 0.0 | 1.6 | 0.00 | 0.00 | 0.00 | 90 | 1011.1 |
| 20260510070347 | 16 | 341 | 0.0 | 3.2 | 0.00 | 0.00 | 0.00 | 90 | 1011.0 |
| 20260510065318 | 16 | 341 | 1.6 | 4.8 | 0.00 | 0.00 | 0.00 | 90 | 1011.1 |
| 20260510064354 | 16 | 341 | 0.0 | 3.2 | 0.00 | 0.00 | 0.00 | 89 | 1011.2 |
| 20260510063324 | 16 | 341 | 0.0 | 3.2 | 0.00 | 0.00 | 0.00 | 89 | 1011.2 |
| 20260510062313 | 16 | 341 | 0.0 | 4.8 | 0.00 | 0.00 | 0.00 | 89 | 1011.3 |
| 20260510061332 | 16 | 341 | 0.0 | 1.6 | 0.00 | 0.00 | 0.00 | 89 | 1011.3 |
| 20260510060328 | 16 | 341 | 0.0 | 3.2 | 0.00 | 0.00 | 0.00 | 89 | 1011.3 |
| 20260510055315 | 16 | 341 | 0.0 | 4.8 | 0.00 | 0.00 | 0.00 | 88 | 1011.3 |
| 20260510054334 | 16 | 341 | 1.6 | 4.8 | 0.00 | 0.00 | 0.00 | 88 | 1011.5 |
| 20260510053323 | 17 | 341 | 1.6 | 4.8 | 0.00 | 0.00 | 0.00 | 88 | 1011.7 |
| 20260510052318 | 17 | 341 | 1.6 | 4.8 | 0.00 | 0.00 | 0.00 | 88 | 1011.7 |
| 20260510051335 | 17 | 341 | 1.6 | 4.8 | 0.00 | 0.00 | 0.00 | 88 | 1011.7 |
| 20260510050326 | 17 | 341 | 1.6 | 8.0 | 0.00 | 0.00 | 0.00 | 88 | 1011.7 |
| 20260510045318 | 17 | 341 | 1.6 | 8.0 | 0.00 | 0.00 | 0.00 | 87 | 1011.8 |
| 20260510044336 | 17 | 341 | 1.6 | 4.8 | 0.00 | 0.00 | 0.00 | 87 | 1011.7 |
| 20260510043325 | 17 | 341 | 1.6 | 6.4 | 0.00 | 0.00 | 0.00 | 87 | 1011.6 |
| 20260510042313 | 17 | 341 | 1.6 | 9.7 | 0.00 | 0.00 | 0.00 | 87 | 1011.6 |
| 20260510041332 | 17 | 341 | 1.6 | 4.8 | 0.00 | 0.00 | 0.00 | 87 | 1011.5 |
| 20260510040322 | 17 | 341 | 1.6 | 4.8 | 0.00 | 0.00 | 0.00 | 86 | 1011.3 |
| 20260510035337 | 17 | 341 | 1.6 | 3.2 | 0.00 | 0.00 | 0.00 | 86 | 1011.5 |
| 20260510034334 | 17 | 341 | 1.6 | 3.2 | 0.00 | 0.00 | 0.00 | 85 | 1011.3 |
| 20260510033323 | 17 | 341 | 1.6 | 4.8 | 0.00 | 0.00 | 0.00 | 84 | 1011.1 |
| 20260510032342 | 17 | 341 | 0.0 | 4.8 | 0.00 | 0.00 | 0.00 | 83 | 1011.0 |
| 20260510031336 | 17 | 341 | 1.6 | 6.4 | 0.00 | 0.00 | 0.00 | 82 | 1011.1 |
| 20260510030326 | 17 | 341 | 0.0 | 4.8 | 0.00 | 0.00 | 0.00 | 82 | 1010.9 |
| 20260510025342 | 18 | 341 | 1.6 | 8.0 | 0.00 | 0.00 | 0.00 | 82 | 1011.1 |
| 20260510024311 | 18 | 341 | 1.6 | 4.8 | 0.00 | 0.00 | 0.00 | 81 | 1010.9 |
| 20260510023330 | 18 | 341 | 0.0 | 6.4 | 0.00 | 0.00 | 0.00 | 81 | 1010.9 |
| 20260510022319 | 18 | 341 | 0.0 | 3.2 | 0.00 | 0.00 | 0.00 | 80 | 1010.8 |
| 20260510021337 | 18 | 341 | 0.0 | 4.8 | 0.00 | 0.00 | 0.00 | 80 | 1010.6 |
| 20260510020326 | 18 | 341 | 0.0 | 1.6 | 0.00 | 0.00 | 0.00 | 80 | 1010.5 |
| 20260510015316 | 18 | 341 | 0.0 | 1.6 | 0.00 | 0.00 | 0.00 | 80 | 1010.4 |
| 20260510014333 | 18 | 341 | 0.0 | 3.2 | 0.00 | 0.00 | 0.00 | 79 | 1010.2 |
| 20260510013331 | 18 | 341 | 0.0 | 3.2 | 0.00 | 0.00 | 0.00 | 79 | 1010.0 |
| 20260510012322 | 18 | 341 | 0.0 | 1.6 | 0.00 | 0.00 | 0.00 | 78 | 1009.6 |
| 20260510011337 | 18 | 341 | 0.0 | 1.6 | 0.00 | 0.00 | 0.00 | 77 | 1009.6 |
| 20260510010311 | 18 | 341 | 0.0 | 1.6 | 0.00 | 0.00 | 0.00 | 76 | 1009.6 |
| 20260510005330 | 19 | 341 | 0.0 | 1.6 | 0.00 | 0.00 | 0.00 | 74 | 1009.7 |
| 20260510004321 | 19 | 341 | 0.0 | 0.0 | 0.00 | 0.00 | 0.00 | 73 | 1009.6 |
| 20260510003313 | 20 | 341 | 0.0 | 0.0 | 0.00 | 0.00 | 0.00 | 71 | 1009.4 |
| 20260510002330 | 20 | 341 | 0.0 | 0.0 | 0.00 | 0.00 | 0.00 | 69 | 1009.6 |
| 20260510001320 | 21 | 341 | 0.0 | 0.0 | 0.00 | 0.00 | 0.00 | 68 | 1009.6 |
| 20260510000337 | 21 | 341 | 0.0 | 1.6 | 0.00 | 0.00 | 0.00 | 66 | 1009.1 |
| 20260509235328 | 21 | 341 | 0.0 | 1.6 | 0.00 | 0.00 | 0.00 | 65 | 1009.0 |
| 20260509234344 | 22 | 341 | 0.0 | 6.4 | 0.00 | 0.00 | 0.00 | 63 | 1008.8 |
| 20260509233341 | 23 | 341 | 0.0 | 3.2 | 0.00 | 0.00 | 0.00 | 60 | 1008.9 |
| 20260509232337 | 24 | 341 | 0.0 | 4.8 | 0.00 | 0.00 | 0.00 | 59 | 1008.9 |
| 20260509231329 | 24 | 341 | 0.0 | 9.7 | 0.00 | 0.00 | 0.00 | 58 | 1008.8 |
| 20260509230320 | 25 | 341 | 1.6 | 8.0 | 0.00 | 0.00 | 0.00 | 57 | 1008.9 |
| 20260509225337 | 24 | 341 | 0.0 | 9.7 | 0.00 | 0.00 | 0.00 | 57 | 1008.9 |
| 20260509224331 | 23 | 341 | 4.8 | 9.7 | 0.00 | 0.00 | 0.00 | 57 | 1008.8 |
| 20260509223350 | 23 | 341 | 3.2 | 11.3 | 0.00 | 0.00 | 0.00 | 57 | 1008.8 |
| 20260509222318 | 25 | 341 | 3.2 | 16.1 | 0.00 | 0.00 | 0.00 | 53 | 1008.9 |
| 20260509221356 | 25 | 341 | 3.2 | 16.1 | 0.00 | 0.00 | 0.00 | 55 | 1008.7 |
| 20260509220326 | 25 | 341 | 4.8 | 12.9 | 0.00 | 0.00 | 0.00 | 53 | 1008.7 |
| 20260509215322 | 25 | 341 | 8.0 | 17.7 | 0.00 | 0.00 | 0.00 | 52 | 1008.5 |
| 20260509214313 | 25 | 341 | 8.0 | 17.7 | 0.00 | 0.00 | 0.00 | 52 | 1008.4 |
| 20260509213331 | 25 | 341 | 4.8 | 11.3 | 0.00 | 0.00 | 0.00 | 53 | 1008.4 |
| 20260509212323 | 25 | 341 | 4.8 | 19.3 | 0.00 | 0.00 | 0.00 | 53 | 1008.4 |
| 20260509211314 | 25 | 341 | 4.8 | 17.7 | 0.00 | 0.00 | 0.00 | 54 | 1008.3 |
| 20260509210351 | 25 | 341 | 6.4 | 16.1 | 0.00 | 0.00 | 0.00 | 54 | 1008.3 |
| 20260509205323 | 25 | 341 | 4.8 | 14.5 | 0.00 | 0.00 | 0.00 | 55 | 1008.5 |
| 20260509204312 | 23 | 341 | 4.8 | 12.9 | 0.00 | 0.00 | 0.00 | 57 | 1008.7 |
| 20260509203329 | 23 | 341 | 1.6 | 14.5 | 0.00 | 0.00 | 0.00 | 56 | 1008.6 |
| 20260509202318 | 24 | 341 | 4.8 | 12.9 | 0.00 | 0.00 | 0.00 | 56 | 1008.6 |
| 20260509201313 | 24 | 341 | 9.7 | 17.7 | 0.00 | 0.00 | 0.00 | 55 | 1008.6 |
| 20260509200330 | 23 | 341 | 6.4 | 12.9 | 0.00 | 0.00 | 0.00 | 56 | 1008.5 |
| 20260509195322 | 23 | 341 | 1.6 | 14.5 | 0.00 | 0.00 | 0.00 | 57 | 1008.7 |
| 20260509194316 | 23 | 341 | 8.0 | 19.3 | 0.00 | 0.00 | 0.00 | 56 | 1008.8 |
| 20260509193334 | 23 | 341 | 4.8 | 17.7 | 0.00 | 0.00 | 0.00 | 54 | 1008.7 |
| 20260509192327 | 23 | 341 | 6.4 | 17.7 | 0.00 | 0.00 | 0.00 | 56 | 1008.8 |
| 20260509191319 | 23 | 341 | 3.2 | 17.7 | 0.00 | 0.00 | 0.00 | 57 | 1009.0 |
| 20260509190312 | 23 | 341 | 6.4 | 17.7 | 0.00 | 0.00 | 0.00 | 57 | 1009.1 |
| 20260509185329 | 23 | 341 | 3.2 | 12.9 | 0.00 | 0.00 | 0.00 | 58 | 1009.1 |
| 20260509184321 | 23 | 341 | 8.0 | 22.5 | 0.00 | 0.00 | 0.00 | 55 | 1009.3 |
| 20260509183336 | 23 | 341 | 8.0 | 24.1 | 0.00 | 0.00 | 0.00 | 58 | 1009.4 |
| 20260509182329 | 23 | 341 | 6.4 | 16.1 | 0.00 | 0.00 | 0.00 | 60 | 1009.6 |
| 20260509181345 | 22 | 341 | 8.0 | 17.7 | 0.00 | 0.00 | 0.00 | 59 | 1009.7 |
| 20260509180316 | 23 | 341 | 6.4 | 27.4 | 0.00 | 0.00 | 0.00 | 57 | 1009.7 |
| 20260509175332 | 23 | 341 | 6.4 | 19.3 | 0.00 | 0.00 | 0.00 | 59 | 1009.6 |
| 20260509174323 | 23 | 341 | 9.7 | 19.3 | 0.00 | 0.00 | 0.00 | 59 | 1009.9 |
| 20260509173314 | 22 | 341 | 4.8 | 20.9 | 0.00 | 0.00 | 0.00 | 62 | 1009.9 |
| 20260509172321 | 22 | 341 | 3.2 | 20.9 | 0.00 | 0.00 | 0.00 | 62 | 1010.1 |
| 20260509171312 | 22 | 341 | 8.0 | 14.5 | 0.00 | 0.00 | 0.00 | 60 | 1010.1 |
| 20260509170329 | 22 | 341 | 6.4 | 25.7 | 0.00 | 0.00 | 0.00 | 59 | 1010.1 |
| 20260509165320 | 22 | 341 | 4.8 | 17.7 | 0.00 | 0.00 | 0.00 | 60 | 1010.3 |
| 20260509164336 | 22 | 341 | 9.7 | 19.3 | 0.00 | 0.00 | 0.00 | 63 | 1010.4 |
| 20260509163333 | 21 | 341 | 8.0 | 16.1 | 0.00 | 0.00 | 0.00 | 64 | 1010.7 |
| 20260509162329 | 22 | 341 | 9.7 | 16.1 | 0.00 | 0.00 | 0.00 | 64 | 1010.8 |
| 20260509161314 | 22 | 341 | 6.4 | 24.1 | 0.00 | 0.00 | 0.00 | 65 | 1010.9 |
| 20260509160330 | 21 | 341 | 6.4 | 19.3 | 0.00 | 0.00 | 0.00 | 68 | 1010.8 |
| 20260509155320 | 20 | 341 | 6.4 | 12.9 | 0.00 | 0.00 | 0.00 | 69 | 1011.0 |
| 20260509154315 | 21 | 341 | 6.4 | 19.3 | 0.00 | 0.00 | 0.00 | 68 | 1011.1 |
| 20260509153331 | 21 | 341 | 6.4 | 12.9 | 0.00 | 0.00 | 0.00 | 68 | 1011.2 |
| 20260509152322 | 20 | 341 | 6.4 | 14.5 | 0.00 | 0.00 | 0.00 | 71 | 1011.5 |
| 20260509151357 | 20 | 341 | 4.8 | 20.9 | 0.00 | 0.00 | 0.00 | 73 | 1011.6 |
| 20260509150328 | 19 | 341 | 3.2 | 16.1 | 0.00 | 0.00 | 0.00 | 74 | 1011.6 |
| 20260509145320 | 18 | 341 | 3.2 | 11.3 | 0.00 | 0.00 | 0.00 | 75 | 1011.6 |
| 20260509144336 | 17 | 341 | 0.0 | 12.9 | 0.00 | 0.00 | 0.00 | 78 | 1011.8 |
| 20260509143326 | 17 | 341 | 1.6 | 9.7 | 0.00 | 0.00 | 0.00 | 79 | 1011.9 |
| 20260509142317 | 17 | 341 | 1.6 | 6.4 | 0.00 | 0.00 | 0.00 | 79 | 1012.1 |
| 20260509141335 | 16 | 341 | 3.2 | 9.7 | 0.00 | 0.00 | 0.00 | 79 | 1012.2 |